When you browse on this site, cookies collect data to enhance your experience and personalize the content and advertising you see.
Visit our Privacy Policy to learn more. By continuing to use the site, you agree to this use of cookies and data.
  • In Hungary
  • List of Countries
  • For 7 days
  • Water Temperature
  • Weather Map
  • News
  • Weather Widgets
  • user-avatar
    Login

    Hourly Weather Denisovka

    Today, 24 October, Thursday

    Time Temperature Precipitation Wind Pressure Humidity
    00:00 +16°C° 0 mm 1 mps 765 mmHg 59%
    01:00 +15°C° 0 mm 1 mps 764 mmHg 60%
    02:00 +14°C° 0 mm 0 mps 764 mmHg 62%
    03:00 +14°C° 0 mm 0 mps 764 mmHg 63%
    04:00 +13°C° 0 mm 0 mps 764 mmHg 64%
    05:00 +13°C° 0 mm 0 mps 764 mmHg 65%
    06:00 +13°C° 0 mm 0 mps 764 mmHg 65%
    07:00 +14°C° 0 mm 0 mps 764 mmHg 62%
    08:00 +15°C° 0 mm 0 mps 764 mmHg 59%
    09:00 +16°C° 0 mm 0 mps 764 mmHg 56%
    10:00 +19°C° 0 mm 1 mps 764 mmHg 53%
    11:00 +20°C° 0 mm 1 mps 764 mmHg 49%
    12:00 +20°C° 0 mm 2 mps 764 mmHg 45%
    13:00 +20°C° 0 mm 2 mps 764 mmHg 44%
    14:00 +21°C° 0 mm 2 mps 763 mmHg 43%
    15:00 +21°C° 0 mm 2 mps 763 mmHg 42%
    16:00 +20°C° 0 mm 2 mps 763 mmHg 46%
    17:00 +20°C° 0 mm 1 mps 763 mmHg 49%
    18:00 +19°C° 0 mm 1 mps 763 mmHg 52%
    19:00 +18°C° 0 mm 1 mps 763 mmHg 54%
    20:00 +18°C° 0 mm 1 mps 763 mmHg 56%
    21:00 +15°C° 0 mm 0 mps 763 mmHg 58%
    22:00 +15°C° 0 mm 0 mps 763 mmHg 59%
    23:00 +14°C° 0 mm 0 mps 763 mmHg 60%

    Tomorrow, 25 October, Friday

    Time Temperature Precipitation Wind Pressure Humidity
    00:00 +14°C° 0 mm 0 mps 763 mmHg 62%
    01:00 +14°C° 0 mm 0 mps 763 mmHg 62%
    02:00 +15°C° 0 mm 1 mps 763 mmHg 63%
    03:00 +14°C° 0 mm 1 mps 763 mmHg 64%
    04:00 +14°C° 0 mm 1 mps 763 mmHg 65%
    05:00 +14°C° 0 mm 1 mps 762 mmHg 66%
    06:00 +14°C° 0 mm 1 mps 762 mmHg 67%
    07:00 +15°C° 0 mm 1 mps 763 mmHg 63%
    08:00 +15°C° 0 mm 1 mps 763 mmHg 60%
    09:00 +16°C° 0 mm 1 mps 763 mmHg 57%
    10:00 +19°C° 0 mm 1 mps 763 mmHg 53%
    11:00 +20°C° 0 mm 1 mps 763 mmHg 49%
    12:00 +21°C° 0 mm 1 mps 763 mmHg 45%
    13:00 +22°C° 0 mm 1 mps 762 mmHg 43%
    14:00 +22°C° 0 mm 1 mps 762 mmHg 42%
    15:00 +22°C° 0 mm 1 mps 762 mmHg 40%
    16:00 +21°C° 0 mm 1 mps 762 mmHg 43%
    17:00 +20°C° 0 mm 1 mps 762 mmHg 46%
    18:00 +19°C° 0 mm 1 mps 762 mmHg 49%
    19:00 +18°C° 0 mm 1 mps 762 mmHg 51%
    20:00 +17°C° 0 mm 2 mps 762 mmHg 52%
    21:00 +16°C° 0 mm 2 mps 762 mmHg 53%
    22:00 +16°C° 0 mm 2 mps 762 mmHg 56%
    23:00 +15°C° 0 mm 2 mps 762 mmHg 59%

    Day after tomorrow, 26 October, Saturday

    Time Temperature Precipitation Wind Pressure Humidity
    00:00 +14°C° 0 mm 2 mps 762 mmHg 61%
    01:00 +14°C° 0 mm 2 mps 762 mmHg 63%
    02:00 +13°C° 0 mm 2 mps 762 mmHg 66%
    03:00 +13°C° 0 mm 2 mps 762 mmHg 68%
    04:00 +13°C° 0 mm 2 mps 763 mmHg 69%
    05:00 +12°C° 0 mm 2 mps 763 mmHg 70%
    06:00 +12°C° 0 mm 2 mps 763 mmHg 72%
    07:00 +13°C° 0 mm 2 mps 763 mmHg 68%
    08:00 +13°C° 0 mm 2 mps 763 mmHg 65%
    09:00 +14°C° 0 mm 2 mps 763 mmHg 61%
    10:00 +15°C° 0 mm 2 mps 763 mmHg 57%
    11:00 +17°C° 0 mm 2 mps 763 mmHg 52%
    12:00 +18°C° 0 mm 2 mps 763 mmHg 47%
    13:00 +19°C° 0 mm 2 mps 763 mmHg 46%
    14:00 +20°C° 0 mm 2 mps 763 mmHg 45%
    15:00 +20°C° 0 mm 2 mps 763 mmHg 44%
    16:00 +20°C° 0 mm 1 mps 763 mmHg 48%
    17:00 +19°C° 0 mm 1 mps 763 mmHg 51%
    18:00 +18°C° 0 mm 1 mps 763 mmHg 55%
    19:00 +16°C° 0 mm 1 mps 763 mmHg 57%
    20:00 +16°C° 0 mm 1 mps 763 mmHg 60%
    21:00 +15°C° 0 mm 2 mps 763 mmHg 62%
    22:00 +15°C° 0 mm 1 mps 763 mmHg 65%
    23:00 +14°C° 0 mm 1 mps 763 mmHg 68%

    27 October, Sunday

    Time Temperature Precipitation Wind Pressure Humidity
    00:00 +14°C° 0 mm 1 mps 763 mmHg 71%
    01:00 +14°C° 0 mm 1 mps 763 mmHg 73%
    02:00 +13°C° 0 mm 1 mps 763 mmHg 74%
    03:00 +13°C° 0 mm 1 mps 763 mmHg 76%
    04:00 +13°C° 0 mm 1 mps 763 mmHg 76%
    05:00 +12°C° 0 mm 1 mps 763 mmHg 77%
    06:00 +12°C° 0 mm 1 mps 763 mmHg 78%
    07:00 +13°C° 0 mm 1 mps 763 mmHg 73%
    08:00 +14°C° 0 mm 1 mps 763 mmHg 69%
    09:00 +15°C° 0 mm 1 mps 764 mmHg 64%
    10:00 +16°C° 0 mm 2 mps 764 mmHg 58%
    11:00 +18°C° 0 mm 2 mps 764 mmHg 52%
    12:00 +19°C° 0 mm 2 mps 764 mmHg 45%
    13:00 +19°C° 0 mm 3 mps 763 mmHg 43%
    14:00 +20°C° 0 mm 3 mps 763 mmHg 41%
    15:00 +20°C° 0 mm 3 mps 762 mmHg 39%
    16:00 +19°C° 0 mm 3 mps 762 mmHg 45%
    17:00 +18°C° 0 mm 3 mps 762 mmHg 50%
    18:00 +16°C° 0 mm 3 mps 762 mmHg 55%
    19:00 +16°C° 0 mm 3 mps 762 mmHg 58%
    20:00 +14°C° 0 mm 3 mps 762 mmHg 61%
    21:00 +14°C° 0 mm 3 mps 762 mmHg 63%
    22:00 +14°C° 0 mm 3 mps 762 mmHg 65%
    23:00 +14°C° 0 mm 3 mps 762 mmHg 67%

    28 October, Monday

    Time Temperature Precipitation Wind Pressure Humidity
    00:00 +13°C° 0 mm 3 mps 762 mmHg 69%
    01:00 +13°C° 0 mm 3 mps 762 mmHg 70%
    02:00 +13°C° 0 mm 3 mps 762 mmHg 71%
    03:00 +13°C° 0 mm 3 mps 761 mmHg 71%
    04:00 +12°C° 0 mm 3 mps 761 mmHg 72%
    05:00 +12°C° 0 mm 3 mps 761 mmHg 73%
    06:00 +12°C° 0 mm 3 mps 761 mmHg 73%
    07:00 +13°C° 0 mm 3 mps 761 mmHg 70%
    08:00 +14°C° 0 mm 3 mps 761 mmHg 67%
    09:00 +15°C° 0 mm 4 mps 761 mmHg 63%
    10:00 +17°C° 0 mm 4 mps 761 mmHg 58%
    11:00 +19°C° 0 mm 5 mps 760 mmHg 54%
    12:00 +20°C° 0 mm 5 mps 760 mmHg 49%
    13:00 +20°C° 0 mm 5 mps 760 mmHg 47%
    14:00 +21°C° 0 mm 6 mps 759 mmHg 46%
    15:00 +21°C° 0 mm 6 mps 759 mmHg 45%
    16:00 +20°C° 0 mm 5 mps 759 mmHg 50%
    17:00 +17°C° 0 mm 5 mps 759 mmHg 55%
    18:00 +16°C° 0 mm 5 mps 759 mmHg 61%
    19:00 +15°C° 0 mm 4 mps 759 mmHg 64%
    20:00 +15°C° 0 mm 4 mps 759 mmHg 66%
    21:00 +14°C° 0 mm 4 mps 759 mmHg 69%
    22:00 +14°C° 0 mm 3 mps 759 mmHg 71%
    23:00 +13°C° 0 mm 3 mps 759 mmHg 72%

    29 October, Tuesday

    Time Temperature Precipitation Wind Pressure Humidity
    00:00 +13°C° 0 mm 3 mps 759 mmHg 73%
    01:00 +14°C° 0 mm 2 mps 759 mmHg 73%
    02:00 +14°C° 0 mm 2 mps 759 mmHg 73%
    03:00 +14°C° 0 mm 2 mps 759 mmHg 73%
    04:00 +13°C° 0 mm 1 mps 759 mmHg 74%
    05:00 +13°C° 0 mm 1 mps 759 mmHg 74%
    06:00 +12°C° 0 mm 0 mps 759 mmHg 75%
    07:00 +13°C° 0 mm 0 mps 759 mmHg 72%
    08:00 +13°C° 0 mm 0 mps 759 mmHg 69%
    09:00 +14°C° 0 mm 0 mps 760 mmHg 65%
    10:00 +16°C° 0 mm 1 mps 760 mmHg 60%
    11:00 +19°C° 0 mm 1 mps 760 mmHg 55%
    12:00 +20°C° 0 mm 1 mps 760 mmHg 50%
    13:00 +21°C° 0 mm 1 mps 760 mmHg 48%
    14:00 +21°C° 0 mm 1 mps 759 mmHg 47%
    15:00 +21°C° 0 mm 1 mps 759 mmHg 45%
    16:00 +20°C° 0 mm 1 mps 759 mmHg 49%
    17:00 +19°C° 0 mm 1 mps 759 mmHg 52%
    18:00 +17°C° 0 mm 2 mps 759 mmHg 56%
    19:00 +16°C° 0 mm 2 mps 759 mmHg 59%
    20:00 +16°C° 0 mm 3 mps 759 mmHg 62%
    21:00 +14°C° 0 mm 3 mps 759 mmHg 65%
    22:00 +14°C° 0 mm 3 mps 759 mmHg 68%
    23:00 +13°C° 0 mm 3 mps 759 mmHg 71%

    30 October, Wednesday

    Time Temperature Precipitation Wind Pressure Humidity
    00:00 +12°C° 0 mm 3 mps 759 mmHg 74%
    01:00 +12°C° 0 mm 3 mps 759 mmHg 76%
    02:00 +12°C° 0 mm 3 mps 759 mmHg 78%
    03:00 +11°C° 0 mm 3 mps 759 mmHg 80%
    04:00 +11°C° 0 mm 3 mps 759 mmHg 82%
    05:00 +11°C° 0 mm 3 mps 759 mmHg 84%
    06:00 +10°C° 0 mm 2 mps 759 mmHg 86%
    07:00 +12°C° 0 mm 2 mps 759 mmHg 82%
    08:00 +13°C° 0 mm 2 mps 759 mmHg 77%
    09:00 +14°C° 0 mm 2 mps 759 mmHg 73%
    10:00 +15°C° 0 mm 2 mps 758 mmHg 66%
    11:00 +17°C° 0 mm 2 mps 758 mmHg 60%
    12:00 +20°C° 0 mm 1 mps 758 mmHg 53%
    13:00 +20°C° 0 mm 1 mps 758 mmHg 51%
    14:00 +21°C° 0 mm 1 mps 758 mmHg 50%
    15:00 +21°C° 0 mm 1 mps 757 mmHg 48%
    16:00 +18°C° 0 mm 0 mps 757 mmHg 52%
    17:00 +17°C° 0 mm 0 mps 757 mmHg 55%
    18:00 +16°C° 0 mm 0 mps 757 mmHg 59%
    19:00 +16°C° 0 mm 0 mps 757 mmHg 60%
    20:00 +15°C° 0 mm 0 mps 757 mmHg 62%
    21:00 +16°C° 0 mm 1 mps 757 mmHg 64%
    22:00 +15°C° 0 mm 1 mps 757 mmHg 65%
    23:00 +15°C° 0 mm 1 mps 757 mmHg 67%
    Show more